This demonstration page uses our WeatherBlox Daily Observations layout. Learn more.

Left ArrowRight Arrow

39.08367, -84.50855

Hourly Observations for April 22, 2021

Temp ( °F °C ) Dew Point ( °F °C ) Humidity (%) Winds ( mph kmh ) Pressure ( in mb ) Visibility ( mi km ) Precip ( " mm )
12:14 am 00:14 Clear with Mist and Fog 32 0 30 -1.1 92 92 Calm 30.19 1022 2.5 4.02335 0 0
12:23 am 00:23 Clear with Mist and Fog 32 0 30 -1.1 92 92 Calm 30.19 1022 4 6.43736 0 0
12:26 am 00:26 Clear with Mist and Fog 32 0 30 -1.1 92 92 Calm 30.19 1022 1.75 2.816345 0 0
12:40 am 00:40 Clear with Mist and Fog 32 0 30 -1.1 92 92 Calm 30.19 1022 3 4.82802 0 0
12:44 am 00:44 Mostly Clear with Mist and Fog 31 -0.6 29 -1.7 92 92 Calm 30.19 1022 2.5 4.02335 0 0
12:47 am 00:47 Mostly Cloudy with Mist and Fog 30 -1 28 -2 93 93 Calm 30.19 1022 1 1.60934 0 0
12:53 am 00:53 Mostly Cloudy with Freezing Fog 31 -0.6 30 -1.1 96 96 Calm 30.16 1021 0.25 0.402335 0 0
1:04 am 01:04 Mostly Cloudy with Mist and Fog 30 -1.1 29 -1.7 96 96 Calm 30.19 1022 1 1.60934 0 0
1:06 am 01:06 Mostly Clear with Mist and Fog 31 -0.6 29 -1.7 92 92 Calm 30.18 1022 2 3.21868 0 0
1:16 am 01:16 Mostly Cloudy with Mist and Fog 31 -0.6 29 -1.7 92 92 Calm 30.19 1022 1 1.60934 0 0
1:18 am 01:18 Mostly Cloudy with Mist and Fog 31 -0.6 29 -1.7 92 92 Calm 30.19 1022 0.75 1.207005 0 0
1:41 am 01:41 Mostly Cloudy with Freezing Fog 31 -0.6 29 -1.7 92 92 Calm 30.18 1022 0.25 0.402335 0 0
1:53 am 01:53 Mostly Cloudy with Freezing Fog 30 -1.1 29 -1.7 96 96 Calm 30.16 1021 0.5 0.80467 0 0
2:08 am 02:08 Mostly Cloudy with Freezing Fog 28 -2.2 27 -2.8 96 96 ENE 3 6 30.18 1022 0.25 0.402335 0 0
2:16 am 02:16 Mostly Cloudy with Freezing Fog 29 -1.7 28 -2.2 96 96 Calm 30.17 1022 0.5 0.80467 0 0
2:21 am 02:21 Partly Cloudy with Mist and Fog 29 -1.7 28 -2.2 96 96 Calm 30.17 1022 1 1.60934 0 0
2:30 am 02:30 Mostly Cloudy with Mist and Fog 30 -1.1 29 -1.7 96 96 Calm 30.16 1021 0.75 1.207005 0 0
2:46 am 02:46 Cloudy with Freezing Fog 30 -1.1 29 -1.7 96 96 Calm 30.16 1021 0.5 0.80467 0 0
2:53 am 02:53 Cloudy with Freezing Fog 29 -1.7 29 -1.7 100 100 Calm 30.14 1021 0.25 0.402335 0 0
3:06 am 03:06 Cloudy with Freezing Fog 30 -1.1 28 -2.2 92 92 Calm 30.16 1021 0.5 0.80467 0 0
3:13 am 03:13 Cloudy with Freezing Fog 31 -0.6 29 -1.7 92 92 Calm 30.16 1021 0.5 0.80467 0 0
3:23 am 03:23 Cloudy with Mist and Fog 30 -1.1 29 -1.7 96 96 Calm 30.16 1021 1 1.60934 0 0
3:31 am 03:31 Cloudy with Mist and Fog 31 -0.6 30 -1.1 96 96 Calm 30.16 1021 3 4.82802 0 0
3:53 am 03:53 Cloudy with Mist and Fog 30 -1.1 29 -1.7 96 96 Calm 30.13 1020 5 8.0467 0 0
4:53 am 04:53 Cloudy with Mist and Fog 32 0 31 -0.6 96 96 Calm 30.15 1021 5 8.0467 0 0
5:13 am 05:13 Cloudy with Light Freezing Rain 32 0 31 -0.6 96 96 NE 3 6 30.18 1022 5 8.0467 0.001 0.001
5:29 am 05:29 Cloudy with Mist and Fog 33 0.6 32 0 96 96 Calm 30.17 1022 5 8.0467 0.001 0.001
5:53 am 05:53 Cloudy with Light Rain 34 1.1 32 0 92 92 SW 5 7 30.15 1021 10 16.0934 0.001 0.001
6:53 am 06:53 Cloudy with Light Rain 36 2.2 33 0.6 89 89 SSE 5 7 30.16 1021 8 12.87472 0.001 0.001
7:53 am 07:53 Cloudy 37 2.8 33 0.6 86 86 S 3 6 30.17 1022 10 16.0934 0.001 0.001
8:53 am 08:53 Cloudy 39 3.9 35 1.7 86 86 Calm 30.18 1022 10 16.0934 0 0
9:53 am 09:53 Mostly Cloudy 43 6.1 35 1.7 74 74 VRB 3 6 30.18 1022 10 16.0934 0 0
10:53 am 10:53 Cloudy 45 7.2 32 0 61 61 Calm 30.19 1022 10 16.0934 0 0
11:53 am 11:53 Cloudy 46 7.8 25 -3.9 44 44 NW 9 15 30.2 1023 10 16.0934 0 0
12:53 pm 12:53 Cloudy 50 10 26 -3.3 39 39 W 14 22 30.19 1022 10 16.0934 0.001 0.001
1:53 pm 13:53 Mostly Cloudy 51 10.6 26 -3.3 38 38 W 12 19 30.17 1022 10 16.0934 0 0
2:53 pm 14:53 Mostly Cloudy 54 12.2 26 -3.3 34 34 W 14 22 30.17 1022 10 16.0934 0 0
3:53 pm 15:53 Mostly Cloudy 50 10 21 -6.1 32 32 NW 14 22 30.16 1021 10 16.0934 0 0
4:53 pm 16:53 Partly Cloudy 51 10.6 23 -5 33 33 W 13 20 30.15 1021 10 16.0934 0 0
5:53 pm 17:53 Sunny 51 10.6 23 -5 33 33 W 13 20 30.14 1021 10 16.0934 0 0
6:53 pm 18:53 Sunny 52 11.1 23 -5 32 32 WNW 10 17 30.15 1021 10 16.0934 0 0
7:53 pm 19:53 Sunny 51 10.6 22 -5.6 32 32 WNW 7 11 30.14 1021 10 16.0934 0 0
8:53 pm 20:53 Clear 49 9.4 22 -5.6 35 35 VRB 5 7 30.15 1021 10 16.0934 0 0
9:53 pm 21:53 Clear 39 3.9 30 -1.1 70 70 Calm 30.17 1022 10 16.0934 0 0
10:53 pm 22:53 Clear 36 2.2 30 -1.1 79 79 Calm 30.19 1022 10 16.0934 0 0
11:53 pm 23:53 Clear 35 1.7 30 -1.1 82 82 Calm 30.19 1022 10 16.0934 0 0

Powered by AerisWeather